GFSCGP_850_thetae_021.txt.gz
Theta_e
312 311 312 311 313 312 312 312 311 313 314 315 314 315 314 314 313 312 315 316 317 317 317 317 317 316 315 313 312 311 309 308 307 305 304 302 302 301 300 300 299 299 299 298
313 313 312 312 311 313 313 313 312 313 312 312 312 313 314 311 313 315 314 315 316 317 317 316 316 316 314 314 312 310 309 308 307 306 306 304 304 301 301 300 298 298 298 297
312 312 313 314 314 314 313 312 313 312 312 311 311 311 312 311 313 315 316 317 316 316 316 316 315 315 314 313 312 311 309 309 308 307 305 303 300 299 299 298 298 298 297 297
311 312 312 312 313 313 314 311 312 313 313 313 311 314 311 312 311 311 313 315 317 316 316 315 314 314 314 313 312 311 309 309 308 306 304 304 304 304 304 302 301 299 297 296
312 313 311 312 313 311 314 312 311 313 312 312 314 314 314 312 311 311 311 315 316 317 316 315 314 313 314 313 312 311 309 308 307 306 305 304 303 302 302 300 299 298 297 296
309 311 312 311 310 311 310 312 311 310 309 313 312 313 312 310 312 311 312 314 316 317 316 313 313 313 313 312 310 310 309 308 307 306 306 305 304 302 301 300 298 297 297 296
309 309 309 310 312 309 310 311 312 311 310 314 310 311 314 311 310 310 311 315 317 317 313 314 314 313 313 312 310 309 308 307 307 307 306 306 305 303 301 300 299 297 297 296
310 311 309 308 311 310 308 312 311 310 312 313 308 311 311 311 312 314 315 317 316 313 313 314 313 313 312 311 310 308 307 307 307 307 306 306 305 304 301 300 299 298 297 297
310 310 309 308 309 310 310 311 311 313 298 308 313 310 310 310 309 307 308 310 311 313 313 313 312 311 311 310 310 310 309 308 307 308 306 306 305 304 303 301 299 297 296 295
311 312 310 307 307 308 309 308 311 310 311 310 313 311 313 311 311 310 308 306 310 312 312 312 311 311 311 310 310 309 309 309 308 307 305 306 306 305 302 300 299 297 295 293
309 311 312 306 307 309 307 309 309 309 311 315 314 313 310 308 308 310 308 310 310 311 311 311 311 311 310 309 309 310 309 309 308 307 306 305 306 305 302 301 299 297 294 293
310 311 313 311 308 306 308 310 311 312 312 310 312 313 313 310 307 308 309 311 311 311 311 312 311 311 310 310 309 310 309 308 308 307 306 306 304 303 301 300 299 296 294 292
312 311 315 313 312 306 307 307 308 310 310 313 313 313 312 311 307 308 307 310 310 310 311 312 311 312 312 312 311 310 310 309 308 307 306 304 303 302 301 300 298 295 293 292
311 310 313 317 315 312 311 309 308 310 311 312 311 312 311 311 311 311 312 312 312 311 312 312 313 312 312 311 310 310 309 309 309 307 306 304 303 302 300 299 297 294 292 291
312 313 312 312 312 313 313 313 312 312 312 314 313 312 310 310 310 310 310 310 310 310 311 311 312 311 311 311 311 310 309 309 309 308 305 304 303 301 299 298 295 293 292 291
310 314 314 314 312 312 313 312 312 313 312 312 312 313 312 312 312 312 313 312 310 310 310 311 311 312 312 312 311 311 310 309 308 307 305 303 302 300 299 296 294 292 291 290
312 311 314 315 312 312 313 313 313 312 312 312 313 312 311 311 311 311 312 311 311 311 311 311 312 312 312 311 311 311 310 310 308 306 305 303 301 300 298 296 294 292 291 289
310 310 312 315 314 315 312 310 310 311 311 311 311 311 311 311 311 311 311 311 311 311 311 311 311 311 311 310 310 309 308 308 307 305 303 302 301 299 297 295 293 291 290 288
309 311 313 314 315 313 312 310 310 310 311 310 310 310 311 311 311 310 309 307 307 308 310 311 311 310 309 309 308 308 308 308 307 306 304 302 300 298 296 293 292 290 288 287
309 310 312 314 316 316 311 304 306 310 312 302 302 303 304 304 309 309 303 302 303 304 305 305 306 307 307 307 306 307 307 307 307 306 304 301 299 297 295 293 290 289 287 286
304 308 310 311 312 313 301 301 304 311 307 300 299 300 301 303 302 300 299 299 299 299 300 301 302 303 306 306 303 304 305 305 305 304 302 300 297 295 293 291 289 288 286 285
298 299 302 303 307 311 298 301 302 300 299 298 297 297 297 297 297 296 296 296 296 296 298 298 297 298 300 302 304 302 302 301 300 300 299 296 294 293 290 289 287 286 285 284
295 297 294 294 297 295 296 293 292 296 297 294 294 294 294 295 294 294 294 295 295 294 294 294 293 295 300 303 302 302 303 301 298 297 297 295 292 290 288 287 285 284 283 283
289 291 292 290 292 290 290 292 293 291 291 290 291 290 290 291 292 293 293 293 293 294 294 294 293 296 301 303 303 303 303 303 300 297 295 293 292 289 286 285 284 283 283 283
290 290 288 289 289 290 290 290 289 288 288 287 286 285 286 288 288 289 289 290 290 291 292 292 294 295 294 294 295 296 295 297 300 298 296 292 289 287 285 284 284 283 283 284
289 289 289 289 290 287 288 286 286 286 284 283 282 282 282 282 282 282 283 284 286 287 289 290 291 292 292 292 293 294 295 296 295 294 294 293 289 286 284 284 281 280 283 282

GFSCGP_850_thetae_024.txt.gz
Theta_e
311 309 309 310 310 311 310 309 310 311 311 313 312 313 313 314 314 312 314 315 316 317 317 318 317 317 317 316 315 315 313 312 310 309 307 305 306 305 303 302 301 299 299 299
311 310 310 309 309 310 311 312 312 312 311 310 311 312 313 312 313 314 313 314 314 315 317 317 317 317 316 316 316 314 314 313 311 310 309 307 307 307 305 303 302 300 299 298
311 311 311 310 310 311 310 311 312 312 311 309 308 311 310 309 312 313 314 314 314 314 316 317 317 317 316 315 315 315 314 313 312 310 308 307 305 304 303 303 301 300 299 298
308 310 311 311 311 311 312 310 311 311 311 312 310 313 311 309 310 310 312 314 314 315 316 317 317 316 315 316 315 314 314 313 311 310 309 308 308 307 307 305 303 301 299 298
309 311 310 310 312 310 313 310 310 310 309 309 311 311 312 310 311 310 311 313 316 317 317 317 317 316 315 315 314 313 313 312 311 310 309 308 307 307 306 305 303 300 299 298
309 310 309 309 309 308 309 311 310 307 308 313 311 311 312 310 311 311 311 314 315 316 317 317 316 315 315 314 313 313 312 312 311 309 308 307 307 307 306 305 303 302 299 298
307 307 308 310 311 309 310 310 310 310 310 313 309 310 313 310 310 309 310 313 316 317 317 317 314 314 314 314 313 313 312 311 311 310 308 308 308 307 307 306 305 303 301 299
308 311 307 307 310 309 309 310 311 309 312 313 306 310 311 309 310 313 314 314 315 316 316 316 315 314 314 313 313 312 312 311 310 310 309 308 307 307 307 306 305 304 302 300
308 309 308 307 308 309 308 309 310 309 295 305 310 310 311 307 308 307 309 312 311 312 313 313 313 314 314 313 313 312 312 311 310 310 308 308 307 307 307 306 305 303 301 299
309 310 309 307 307 307 308 307 310 309 310 308 311 310 312 311 311 308 307 307 311 311 311 311 312 313 313 312 312 311 311 311 310 309 308 308 308 307 306 305 305 304 302 299
309 311 311 308 307 310 306 308 308 308 312 315 315 314 313 311 308 306 307 310 311 312 314 312 311 312 311 310 310 310 310 310 309 308 308 307 308 307 305 304 304 303 301 299
310 312 314 313 310 306 306 309 310 312 313 312 313 314 313 313 311 311 311 309 312 312 313 310 311 310 310 310 310 310 310 309 310 309 308 307 306 306 305 304 304 302 301 299
311 314 317 315 312 311 312 311 309 310 310 312 314 314 313 312 311 311 306 309 311 311 312 311 310 310 311 312 311 311 311 312 311 309 308 307 306 305 305 305 304 302 300 298
314 315 316 317 316 312 311 310 310 310 311 312 311 311 310 311 311 311 311 311 311 311 311 312 312 312 311 311 312 312 311 309 309 309 308 307 306 306 306 304 303 301 299 297
312 315 314 314 314 314 314 314 313 313 310 311 311 311 310 310 311 312 311 311 310 310 310 310 310 311 311 312 311 311 311 311 311 310 308 308 307 306 304 303 303 301 299 297
303 309 311 312 312 311 312 312 312 312 312 313 313 313 312 311 312 312 312 312 312 312 312 312 312 311 311 311 312 312 311 312 311 310 309 309 307 306 305 303 302 301 298 296
302 305 306 307 309 310 312 313 312 312 311 312 314 313 312 311 312 311 310 308 303 302 302 303 305 308 310 311 311 310 311 311 310 310 308 308 307 305 303 302 300 299 297 295
301 301 302 305 305 307 308 310 311 311 311 311 310 304 303 303 305 307 302 299 299 299 299 299 298 300 303 305 308 309 309 308 309 309 308 307 306 305 302 300 299 297 296 295
299 300 305 306 308 309 310 306 304 307 307 300 300 299 297 296 300 299 296 295 295 295 296 295 295 296 297 299 303 304 306 307 307 307 307 306 305 303 301 299 298 297 295 293
295 297 303 304 306 307 300 299 295 298 307 294 297 296 296 295 295 296 294 294 293 293 294 294 294 294 294 295 298 301 304 304 305 305 304 302 301 301 300 299 297 296 294 293
285 286 291 295 299 301 294 293 294 304 296 292 294 293 293 293 293 293 293 293 293 294 293 293 293 294 295 293 296 299 301 302 301 301 300 300 298 297 296 296 295 294 292 290
289 289 292 292 291 295 292 291 289 291 292 294 292 291 290 290 290 290 291 291 291 291 291 291 292 292 292 292 294 301 301 301 300 303 299 297 297 295 294 293 292 291 290 289
288 291 291 291 291 291 290 290 289 292 289 289 289 289 287 286 287 287 288 288 288 289 289 290 289 290 290 291 292 297 300 300 300 301 302 302 298 294 292 291 291 289 288 287
286 289 287 287 288 289 289 289 289 289 288 287 287 285 284 284 284 284 283 283 283 284 284 285 286 287 289 290 290 291 293 294 295 297 299 301 300 300 299 294 291 288 288 286
288 288 287 287 289 289 289 289 288 286 285 285 285 284 282 281 281 281 281 281 281 281 281 281 283 284 284 286 288 288 290 291 292 293 294 295 297 298 298 298 295 294 290 288
289 289 289 288 288 289 289 288 285 284 282 280 280 280 281 280 279 278 278 279 278 279 278 278 277 278 282 283 285 286 288 290 292 292 292 292 292 292 292 289 286 283 284 285

GFSCGP_850_thetae_030.txt.gz
Theta_e
310 307 308 309 307 308 307 306 306 306 308 309 309 309 309 310 310 310 311 311 312 313 315 315 315 315 314 314 314 315 316 316 314 314 313 313 312 310 309 309 308 305 304 302
308 307 307 307 307 307 307 308 308 308 309 306 307 309 309 309 310 311 311 311 312 312 313 314 314 314 314 314 314 314 314 315 315 315 314 313 313 312 310 309 307 306 304 302
309 309 308 308 308 308 306 307 308 308 307 306 306 308 307 307 308 310 311 311 311 312 313 314 314 315 314 314 314 314 314 313 314 315 314 313 311 310 309 309 307 305 304 302
307 308 308 307 308 307 309 307 308 308 308 309 308 311 308 311 310 306 309 311 313 314 314 314 314 314 314 314 314 314 314 313 314 313 312 313 313 313 313 312 311 309 306 304
309 308 308 309 309 307 309 308 308 308 307 307 308 307 311 308 308 308 307 311 313 314 312 313 314 314 314 314 313 313 314 313 313 313 313 312 311 312 312 311 311 309 307 305
306 307 307 308 307 306 308 309 307 304 306 310 309 308 310 308 309 309 309 314 314 313 313 314 313 313 314 314 313 311 312 313 312 312 311 312 312 310 310 310 310 309 307 305
306 306 307 307 308 307 308 308 309 309 309 313 307 308 312 309 308 309 310 313 314 313 313 312 313 313 313 313 313 312 311 311 311 311 310 310 310 308 309 309 310 309 308 306
307 315 306 305 307 309 306 307 308 308 310 314 307 312 313 308 309 311 309 310 312 312 312 312 313 313 312 313 313 311 310 310 310 309 310 308 307 308 309 309 308 309 308 308
306 309 306 304 306 307 306 308 307 308 298 303 311 310 312 309 307 307 308 309 311 310 310 313 313 312 312 312 313 313 310 310 309 308 308 308 308 307 309 309 309 308 307 307
309 309 307 306 306 306 307 306 308 305 311 309 311 310 313 312 310 308 306 306 311 312 313 313 313 312 311 312 313 312 310 309 309 309 308 307 307 307 307 307 309 309 308 307
308 311 314 310 306 307 305 307 307 307 310 315 316 314 313 311 309 307 309 311 311 311 311 310 308 308 308 309 310 309 308 309 308 309 309 308 307 307 307 306 306 307 307 307
308 312 314 314 311 307 308 312 312 313 314 310 312 314 312 311 310 309 310 311 308 304 304 304 303 304 304 306 307 308 308 305 305 305 304 304 305 306 305 307 307 307 306 305
311 313 315 313 310 307 310 310 310 311 312 313 314 314 310 310 310 310 306 304 302 301 300 300 301 300 298 299 299 302 304 305 307 308 307 305 303 303 304 305 306 306 306 305
309 311 312 314 312 308 309 307 306 306 307 309 309 313 312 308 304 297 297 295 295 294 294 294 294 295 295 295 295 295 297 298 301 305 306 306 305 304 305 304 302 303 303 304
304 304 305 303 302 302 302 302 302 303 304 305 305 306 304 296 295 296 294 293 292 292 292 292 292 293 292 292 293 295 294 294 295 301 303 305 306 306 305 304 304 304 303 302
298 299 299 298 299 298 298 297 298 299 299 301 305 304 294 293 293 294 293 292 291 291 291 292 291 291 291 291 290 291 293 295 293 296 300 301 304 306 305 304 303 303 301 300
295 294 289 297 297 294 293 294 295 296 296 296 299 295 293 292 292 291 291 292 290 289 290 291 290 291 290 290 290 289 291 292 293 293 298 297 298 301 303 301 302 302 303 300
293 290 286 289 286 288 294 296 294 295 293 292 292 293 292 291 291 289 291 290 289 288 288 289 288 287 288 288 288 288 288 292 292 292 296 297 295 296 296 296 297 298 301 300
293 293 285 288 286 293 296 292 290 289 290 290 290 292 292 291 289 289 288 288 288 288 287 287 286 286 286 286 286 286 288 288 288 291 292 296 296 294 293 293 294 294 297 300
290 293 293 280 288 288 290 290 290 290 288 287 289 288 289 290 287 287 288 288 287 286 286 286 285 285 285 285 285 285 285 286 286 287 288 291 296 297 294 291 291 292 292 293
278 275 281 277 279 283 287 289 288 285 288 287 289 290 290 289 287 287 288 287 286 286 285 284 284 283 284 284 283 283 284 284 284 284 285 287 290 294 297 295 291 290 291 290
285 280 278 273 275 283 287 288 285 287 288 288 288 289 289 288 287 287 287 286 285 285 284 284 283 282 282 282 281 282 282 282 283 283 284 285 286 290 292 295 295 290 289 290
286 286 282 283 284 288 289 289 290 289 288 288 288 288 288 286 286 285 285 284 284 283 282 282 281 282 283 282 280 279 281 281 282 282 282 283 283 285 289 290 293 293 289 289
287 288 287 288 289 289 289 289 289 289 288 288 288 288 286 284 284 283 282 282 281 281 280 279 279 279 280 280 279 279 279 278 279 280 281 282 282 283 284 289 289 290 292 290
289 287 286 288 289 289 289 289 288 289 288 288 287 286 284 282 282 280 279 279 278 278 278 277 276 276 276 276 275 275 275 275 277 277 278 279 280 280 281 283 287 289 289 291
289 289 289 289 289 289 289 289 288 288 286 285 284 284 282 279 278 277 277 276 275 275 275 274 273 273 273 272 272 272 271 271 272 275 276 276 276 278 278 280 282 285 288 289

GFSCGP_850_thetae_033.txt.gz
Theta_e
309 307 308 309 307 307 307 305 305 305 307 306 309 308 308 309 308 309 310 310 309 310 313 314 313 313 313 313 313 313 313 313 313 314 313 313 314 314 313 312 311 310 307 306
307 307 307 307 306 306 307 308 308 308 307 305 306 308 309 309 309 310 310 310 310 312 314 314 313 312 312 313 313 313 313 313 312 312 312 312 313 313 313 312 311 309 307 306
309 309 307 306 307 308 305 307 308 307 305 305 305 308 307 308 308 310 311 310 312 312 313 313 313 313 313 313 312 312 312 313 313 312 311 311 311 310 312 312 311 310 308 307
306 307 308 306 307 306 309 306 307 307 307 309 307 310 311 312 310 309 309 312 312 312 312 312 312 312 313 313 313 314 313 312 311 311 311 312 311 312 313 313 312 311 309 307
309 307 307 308 308 306 308 308 307 306 306 307 307 308 308 308 311 309 308 312 311 311 311 311 312 313 313 314 314 313 313 312 310 310 309 309 310 311 310 309 311 310 309 307
305 306 306 307 306 306 307 308 306 303 305 309 308 309 310 308 310 309 309 311 310 311 312 311 312 313 313 313 312 312 313 313 311 309 308 309 308 308 308 309 309 309 308 307
306 306 306 307 308 306 307 307 310 311 309 315 306 307 312 309 311 308 306 309 310 311 311 312 312 311 310 309 310 312 313 311 309 309 307 306 307 307 307 307 307 307 308 308
307 316 306 305 308 309 307 308 313 313 312 316 306 311 312 308 309 309 308 309 311 313 310 308 309 309 309 310 310 311 312 311 308 306 305 305 305 305 305 306 306 306 307 307
316 311 305 304 305 307 306 309 308 310 297 306 313 313 311 306 307 307 307 310 307 304 307 307 307 305 306 307 308 308 310 308 307 305 304 303 303 303 303 304 304 304 304 305
310 314 309 306 305 305 307 306 309 308 313 315 313 312 312 310 310 306 305 301 301 302 303 303 303 304 304 305 306 307 306 306 306 306 305 304 303 302 302 302 302 302 303 304
312 311 313 311 309 312 312 308 307 307 310 316 316 314 310 309 305 302 302 301 298 298 298 299 300 299 298 299 300 301 302 302 303 305 306 306 304 302 301 301 302 302 302 302
312 312 315 313 309 306 307 310 310 312 313 311 313 314 311 308 303 299 298 296 294 293 293 293 294 295 296 296 296 295 297 298 297 297 301 303 303 303 301 300 301 302 303 302
312 313 315 310 308 308 310 310 309 307 309 312 314 314 306 304 303 296 295 293 292 292 291 290 291 292 292 294 294 295 295 295 295 295 296 300 301 301 302 300 299 300 301 301
309 310 312 312 310 306 308 304 303 303 305 306 306 305 304 301 297 296 294 293 292 291 290 290 290 290 291 291 292 293 294 294 294 295 293 294 298 298 299 300 300 298 299 301
303 307 305 308 303 300 301 301 300 300 300 301 300 300 300 296 293 292 291 291 292 290 288 289 290 290 289 288 288 290 291 292 293 293 294 295 294 296 297 297 299 299 298 297
298 300 298 295 299 299 299 296 295 295 295 295 296 297 294 293 291 291 290 290 292 289 288 288 287 288 287 286 286 286 287 288 291 292 292 292 294 292 295 297 295 298 297 295
295 296 291 298 297 292 291 293 295 294 293 294 297 294 291 291 291 291 289 289 290 288 288 287 287 286 286 286 285 285 285 285 286 287 289 291 291 292 291 294 297 295 296 294
295 290 286 285 282 286 293 292 295 296 293 291 290 290 290 291 291 290 289 289 288 288 287 287 287 286 286 285 285 284 285 285 285 285 285 285 286 288 290 290 293 297 295 294
293 293 282 284 280 288 293 291 290 288 288 288 286 287 290 290 291 289 289 288 288 287 287 287 286 286 286 285 284 284 285 285 285 284 284 284 284 285 287 288 289 293 296 294
291 292 289 277 284 284 289 289 290 288 287 286 287 286 288 289 287 288 288 288 288 288 287 286 286 286 285 285 284 284 284 284 284 283 283 284 284 284 284 285 286 289 293 294
277 278 290 287 289 285 286 289 288 284 286 288 287 288 288 288 288 288 288 288 288 287 287 286 285 285 285 284 283 283 282 283 282 282 283 283 283 283 283 283 284 285 289 292
286 279 275 270 274 283 285 287 286 287 289 289 288 288 288 288 288 288 288 288 286 285 285 285 284 284 284 283 282 281 281 280 279 281 282 282 283 283 283 282 282 284 285 289
286 286 283 283 283 286 289 289 289 289 289 289 288 288 288 288 287 288 287 285 284 283 282 282 280 280 282 281 279 278 280 277 276 276 277 279 280 281 282 282 282 282 283 286
286 287 287 288 288 288 289 289 289 289 289 288 288 288 287 286 285 284 283 282 281 280 279 278 277 277 277 277 276 275 275 274 273 273 273 274 277 279 280 281 280 279 281 283
289 287 286 287 289 289 289 289 289 288 288 288 287 286 285 283 282 280 279 278 277 276 275 275 274 274 273 273 272 272 271 270 270 270 270 269 270 273 275 278 277 277 279 280
289 289 289 289 289 289 289 289 289 288 287 286 284 284 283 279 279 277 277 276 274 273 272 271 270 269 269 268 268 267 267 266 266 266 266 266 266 268 269 272 276 276 278 280